SIA606 RJBB-RJTT

Flight info

Callsign SIA606
Flight time 0h 30m
Altitude 39000
Route UPMIN DOPDA KEC Y43 MENUR Y21 AKSEL
Aircraft A359/H-SDE2E3GHIJ3J4J5LM1ORWXY/LB1D1

Departure

Time 2026-05-06 13:20
Airport Kansai International Airport (RJBB)

Arrival

Time 2026-05-06 13:50
Airport Tokyo Haneda International Airport (RJTT)
Time Latitude Longitude Altitude Speed Heading
2026-05-06 13:09 34.43872 135.25310 21 ft 0 kts 292°
2026-05-06 13:13 34.43866 135.25327 23 ft 2 kts 292°
2026-05-06 13:13 34.43865 135.25330 24 ft 0 kts 292°
2026-05-06 13:14 34.43862 135.25341 25 ft 2 kts 289°
2026-05-06 13:14 34.43857 135.25359 26 ft 2 kts 289°
2026-05-06 13:14 34.43851 135.25377 26 ft 3 kts 286°
2026-05-06 13:15 34.43848 135.25399 28 ft 3 kts 267°
2026-05-06 13:15 34.43851 135.25420 28 ft 3 kts 248°
2026-05-06 13:15 34.43849 135.25416 28 ft 6 kts 241°
2026-05-06 13:15 34.43787 135.25320 23 ft 22 kts 229°
2026-05-06 13:16 34.43648 135.25253 28 ft 18 kts 213°
2026-05-06 13:16 34.43554 135.25109 27 ft 28 kts 232°
2026-05-06 13:16 34.43406 135.24893 27 ft 24 kts 213°
2026-05-06 13:16 34.43385 135.24889 27 ft 2 kts 160°
2026-05-06 13:17 34.43346 135.24938 28 ft 10 kts 109°
2026-05-06 13:17 34.43381 135.25021 27 ft 18 kts 54°
2026-05-06 13:17 34.43488 135.25188 28 ft 32 kts 51°
2026-05-06 13:17 34.43658 135.25438 29 ft 44 kts 51°
2026-05-06 13:18 34.43812 135.25684 28 ft 28 kts 70°
2026-05-06 13:18 34.43727 135.25837 30 ft 7 kts 168°
2026-05-06 13:18 34.43670 135.25802 28 ft 15 kts 213°
2026-05-06 13:18 34.43645 135.25766 27 ft 0 kts 237°
2026-05-06 13:19 34.43589 135.25677 28 ft 44 kts 230°
2026-05-06 13:19 34.43248 135.25174 31 ft 109 kts 231°
2026-05-06 13:19 34.42643 135.24283 29 ft 163 kts 231°
2026-05-06 13:20 34.41924 135.23188 677 ft 160 kts 232°
2026-05-06 13:20 34.41613 135.21299 1393 ft 177 kts 270°
2026-05-06 13:20 34.41483 135.13978 3442 ft 239 kts 264°
2026-05-06 13:20 34.40937 135.05830 6509 ft 247 kts 254°
2026-05-06 13:21 34.35758 134.99904 9163 ft 282 kts 186°
2026-05-06 13:21 34.27326 135.00579 11073 ft 341 kts 177°
2026-05-06 13:21 34.17263 135.02673 13033 ft 380 kts 167°
2026-05-06 13:21 34.06790 135.05950 15254 ft 395 kts 168°
2026-05-06 13:22 33.95919 135.09189 17321 ft 410 kts 167°
2026-05-06 13:22 33.86440 135.17135 19264 ft 435 kts 133°
2026-05-06 13:22 33.78810 135.28811 21134 ft 450 kts 132°
2026-05-06 13:22 33.70995 135.40582 22935 ft 463 kts 134°
2026-05-06 13:23 33.62766 135.52808 24580 ft 476 kts 135°
2026-05-06 13:23 33.54336 135.65301 26247 ft 488 kts 136°
2026-05-06 13:23 33.47023 135.79419 27897 ft 522 kts 110°
2026-05-06 13:23 33.48049 135.97154 29496 ft 550 kts 78°
2026-05-06 13:24 33.51768 136.15159 30848 ft 559 kts 79°
2026-05-06 13:24 33.55280 136.33182 32084 ft 564 kts 79°
2026-05-06 13:24 33.58788 136.51474 33613 ft 562 kts 80°
2026-05-06 13:24 33.62285 136.69845 34748 ft 565 kts 81°
2026-05-06 13:25 33.65762 136.88299 35721 ft 568 kts 81°
2026-05-06 13:25 33.69238 137.06848 36641 ft 571 kts 81°
2026-05-06 13:25 33.72706 137.25499 37136 ft 571 kts 81°
2026-05-06 13:26 33.79550 137.62931 37127 ft 573 kts 81°
2026-05-06 13:26 33.86301 138.00505 37123 ft 575 kts 81°
2026-05-06 13:27 33.89632 138.19308 37125 ft 576 kts 81°
2026-05-06 13:27 33.91711 138.28634 37129 ft 579 kts 68°
2026-05-06 13:28 33.95234 138.37290 37127 ft 579 kts 62°
2026-05-06 13:28 33.99062 138.45857 37132 ft 580 kts 61°
2026-05-06 13:29 34.02921 138.54414 37129 ft 580 kts 61°
2026-05-06 13:29 34.06742 138.62991 37128 ft 580 kts 61°
2026-05-06 13:30 34.10515 138.71535 37118 ft 580 kts 61°
2026-05-06 13:30 34.12407 138.75834 36860 ft 579 kts 61°
2026-05-06 13:30 34.14293 138.80126 36494 ft 577 kts 61°
2026-05-06 13:30 34.16174 138.84407 35908 ft 576 kts 62°
2026-05-06 13:31 34.18053 138.88688 35250 ft 576 kts 62°
2026-05-06 13:31 34.19933 138.92975 34553 ft 577 kts 62°
2026-05-06 13:31 34.21814 138.97265 33810 ft 578 kts 62°
2026-05-06 13:31 34.23058 139.00104 33315 ft 578 kts 62°
2026-05-06 13:32 34.25573 139.05861 32254 ft 579 kts 62°
2026-05-06 13:32 34.27448 139.10164 31459 ft 579 kts 62°
2026-05-06 13:32 34.28604 139.13069 30929 ft 579 kts 67°
2026-05-06 13:32 34.30216 139.17526 30152 ft 578 kts 67°
2026-05-06 13:33 34.32292 139.23463 29001 ft 576 kts 68°
2026-05-06 13:33 34.33334 139.26492 28509 ft 574 kts 68°
2026-05-06 13:33 34.35346 139.32380 27683 ft 568 kts 68°
2026-05-06 13:33 34.36344 139.35304 27287 ft 564 kts 68°
2026-05-06 13:34 34.37837 139.39674 26684 ft 559 kts 68°
2026-05-06 13:34 34.39320 139.44010 26085 ft 555 kts 68°
2026-05-06 13:34 34.40795 139.48322 25494 ft 551 kts 68°
2026-05-06 13:34 34.42257 139.52595 24909 ft 547 kts 68°
2026-05-06 13:35 34.43709 139.56842 24333 ft 543 kts 68°
2026-05-06 13:35 34.45151 139.61067 23748 ft 540 kts 68°
2026-05-06 13:35 34.46564 139.65208 23095 ft 536 kts 68°
2026-05-06 13:35 34.48196 139.69236 22510 ft 529 kts 57°
2026-05-06 13:36 34.50486 139.72659 21952 ft 520 kts 41°
2026-05-06 13:36 34.53323 139.75289 21384 ft 508 kts 28°
2026-05-06 13:36 34.56334 139.77482 20824 ft 502 kts 27°
2026-05-06 13:36 34.59334 139.79623 20266 ft 497 kts 27°
2026-05-06 13:37 34.62296 139.81760 19697 ft 492 kts 28°
2026-05-06 13:37 34.65170 139.83995 19138 ft 490 kts 36°
2026-05-06 13:37 34.67576 139.86905 18548 ft 488 kts 53°
2026-05-06 13:37 34.69253 139.90456 17910 ft 482 kts 70°
2026-05-06 13:38 34.70099 139.94337 17336 ft 472 kts 83°
2026-05-06 13:38 34.70585 139.98219 16759 ft 466 kts 83°
2026-05-06 13:38 34.71120 140.02089 16180 ft 461 kts 81°
2026-05-06 13:38 34.71723 140.05900 15604 ft 457 kts 79°
2026-05-06 13:39 34.72365 140.09653 15036 ft 452 kts 78°
2026-05-06 13:39 34.73048 140.13365 14475 ft 447 kts 75°
2026-05-06 13:39 34.74175 140.16856 13921 ft 440 kts 61°
2026-05-06 13:39 34.75630 140.20105 13258 ft 436 kts 59°
2026-05-06 13:40 34.80765 140.31074 11265 ft 415 kts 56°
2026-05-06 13:40 34.89008 140.39416 10455 ft 357 kts 34°
2026-05-06 13:40 34.96540 140.46103 9714 ft 317 kts 34°
2026-05-06 13:40 35.04154 140.48386 8505 ft 288 kts 333°
2026-05-06 13:41 35.11110 140.43883 7849 ft 277 kts 306°
2026-05-06 13:41 35.15495 140.36223 7246 ft 273 kts 300°
2026-05-06 13:41 35.19620 140.28649 6297 ft 271 kts 300°
2026-05-06 13:41 35.23791 140.20963 5301 ft 269 kts 300°
2026-05-06 13:42 35.25056 140.18631 5013 ft 267 kts 300°
2026-05-06 13:42 35.26081 140.16738 4889 ft 268 kts 300°
2026-05-06 13:42 35.27112 140.14834 4760 ft 267 kts 300°
2026-05-06 13:42 35.28125 140.12928 4617 ft 266 kts 297°
2026-05-06 13:43 35.28784 140.10851 4502 ft 259 kts 275°
2026-05-06 13:43 35.28664 140.08702 4377 ft 251 kts 250°
2026-05-06 13:43 35.28599 140.08468 4369 ft 249 kts 247°
2026-05-06 13:43 35.27848 140.06620 4247 ft 236 kts 239°
2026-05-06 13:44 35.27186 140.04920 4139 ft 228 kts 250°
2026-05-06 13:44 35.27467 140.01115 3892 ft 215 kts 292°
2026-05-06 13:44 35.29757 139.97581 3594 ft 216 kts 323°
2026-05-06 13:44 35.31054 139.96635 3478 ft 218 kts 327°
2026-05-06 13:45 35.32380 139.95731 3383 ft 217 kts 326°
2026-05-06 13:45 35.34998 139.93897 3172 ft 217 kts 326°
2026-05-06 13:45 35.36311 139.92979 3041 ft 217 kts 326°
2026-05-06 13:46 35.37619 139.92063 2923 ft 216 kts 326°
2026-05-06 13:46 35.38896 139.91168 2867 ft 204 kts 326°
2026-05-06 13:46 35.40088 139.90332 2763 ft 193 kts 326°
2026-05-06 13:46 35.41256 139.89506 2653 ft 193 kts 326°
2026-05-06 13:47 35.43688 139.87780 2419 ft 194 kts 326°
2026-05-06 13:47 35.44847 139.86961 2189 ft 189 kts 326°
2026-05-06 13:47 35.45959 139.86178 1927 ft 180 kts 326°
2026-05-06 13:47 35.47011 139.85434 1700 ft 173 kts 326°
2026-05-06 13:48 35.48025 139.84717 1454 ft 163 kts 326°
2026-05-06 13:48 35.48983 139.84041 1257 ft 155 kts 325°
2026-05-06 13:48 35.49908 139.83385 1039 ft 154 kts 326°
2026-05-06 13:48 35.50812 139.82744 830 ft 152 kts 328°
2026-05-06 13:49 35.51748 139.82083 642 ft 151 kts 328°
2026-05-06 13:49 35.52658 139.81438 440 ft 152 kts 329°
2026-05-06 13:49 35.53578 139.80787 238 ft 153 kts 329°
2026-05-06 13:49 35.54491 139.80141 44 ft 153 kts 329°
2026-05-06 13:50 35.55337 139.79542 30 ft 123 kts 330°
2026-05-06 13:50 35.55929 139.79123 30 ft 56 kts 329°
2026-05-06 13:50 35.56107 139.78930 29 ft 26 kts 307°
2026-05-06 13:50 35.56140 139.78812 29 ft 0 kts 263°
2026-05-06 13:51 35.56140 139.78810 29 ft 1 kts 262°
2026-05-06 13:51 35.56137 139.78775 29 ft 9 kts 268°
2026-05-06 13:51 35.56186 139.78691 29 ft 17 kts 329°
2026-05-06 13:52 35.56317 139.78594 29 ft 26 kts 329°
2026-05-06 13:52 35.56384 139.78482 29 ft 9 kts 251°
2026-05-06 13:52 35.56335 139.78379 29 ft 18 kts 233°
2026-05-06 13:52 35.56258 139.78224 29 ft 25 kts 240°
2026-05-06 13:53 35.56162 139.78019 29 ft 31 kts 240°
2026-05-06 13:53 35.56053 139.77780 29 ft 32 kts 240°
2026-05-06 13:53 35.55959 139.77581 29 ft 6 kts 240°
2026-05-06 13:53 35.55959 139.77580 29 ft 0 kts 240°
2026-05-06 13:54 35.55958 139.77578 29 ft 3 kts 240°
2026-05-06 13:54 35.55925 139.77505 29 ft 17 kts 240°
2026-05-06 13:55 35.55846 139.77413 29 ft 8 kts 175°
2026-05-06 13:55 35.55794 139.77464 29 ft 15 kts 134°
2026-05-06 13:55 35.55813 139.77611 29 ft 19 kts 60°
2026-05-06 13:55 35.55820 139.77627 29 ft 0 kts 60°